This is the latest recevied weather packets stored in our database for station/object DB0WUN-13. If no packets are shown the sender has not sent any weather packets the latest 1 day(s).
| Time | Temp. | Humidity | Pressure | Rain* | Wind** | Luminosity | Snow |
|---|---|---|---|---|---|---|---|
| 1778055271 | 12.78° C | 82% | 1007.8 hPa | 0 mm | 1.34 m/s, 228° | 218 W/m² | - |
| 1778055214 | 12.78° C | 82% | 1007.8 hPa | 0 mm | 1.34 m/s, 243° | 264 W/m² | - |
| 1778055152 | 12.78° C | 82% | 1007.7 hPa | 0 mm | 1.79 m/s, 242° | 211 W/m² | - |
| 1778055092 | 12.78° C | 82% | 1007.7 hPa | 0 mm | 1.79 m/s, 230° | 185 W/m² | - |
| 1778055031 | 12.78° C | 82% | 1007.7 hPa | 0 mm | 1.34 m/s, 260° | 167 W/m² | - |
| 1778054971 | 12.78° C | 82% | 1007.7 hPa | 0 mm | 1.34 m/s, 225° | 172 W/m² | - |
| 1778054912 | 12.78° C | 82% | 1007.7 hPa | 0 mm | 1.34 m/s, 185° | 214 W/m² | - |
| 1778054852 | 12.78° C | 82% | 1007.7 hPa | 0 mm | 1.34 m/s, 179° | 214 W/m² | - |
| 1778054790 | 12.78° C | 82% | 1007.8 hPa | 0 mm | 1.34 m/s, 216° | 197 W/m² | - |
| 1778054731 | 12.78° C | 81% | 1007.7 hPa | 0 mm | 1.34 m/s, 194° | 185 W/m² | - |
| 1778054671 | 12.78° C | 81% | 1007.8 hPa | 0 mm | 1.34 m/s, 215° | 169 W/m² | - |
| 1778054607 | 12.78° C | 81% | 1007.8 hPa | 0 mm | 1.34 m/s, 177° | 160 W/m² | - |
| 1778054549 | 12.78° C | 81% | 1007.7 hPa | 0 mm | 1.34 m/s, 212° | 185 W/m² | - |
| 1778054489 | 12.78° C | 81% | 1007.7 hPa | 0 mm | 0.89 m/s, 203° | 186 W/m² | - |
| 1778054427 | 12.78° C | 82% | 1007.7 hPa | 0 mm | 1.34 m/s, 175° | 185 W/m² | - |
| 1778054365 | 12.78° C | 82% | 1007.7 hPa | 0 mm | 1.34 m/s, 205° | 183 W/m² | - |
| 1778054307 | 12.78° C | 81% | 1007.7 hPa | 0 mm | 1.34 m/s, 260° | 185 W/m² | - |
| 1778054245 | 12.78° C | 81% | 1007.7 hPa | 0 mm | 1.34 m/s, 231° | 199 W/m² | - |
| 1778054183 | 12.78° C | 82% | 1007.7 hPa | 0 mm | 1.34 m/s, 251° | 202 W/m² | - |
| 1778054123 | 12.78° C | 82% | 1007.7 hPa | 0 mm | 1.34 m/s, 218° | 218 W/m² | - |
| 1778054062 | 12.78° C | 83% | 1007.7 hPa | 0 mm | 1.34 m/s, 156° | 243 W/m² | - |
| 1778054001 | 12.78° C | 82% | 1007.6 hPa | 0 mm | 1.79 m/s, 217° | 287 W/m² | - |
| 1778053940 | 12.78° C | 82% | 1007.7 hPa | 0 mm | 1.79 m/s, 217° | 287 W/m² | - |
| 1778053877 | 12.78° C | 82% | 1007.6 hPa | 0 mm | 1.79 m/s, 224° | 237 W/m² | - |
| 1778053822 | 12.78° C | 82% | 1007.6 hPa | 0 mm | 1.79 m/s, 263° | 202 W/m² | - |
* Rain latest hour (hover to see other rain measurements)
** Current wind speed in m/s (hover to see current wind gust speed)